STARLINK-1350, 45535

Orbit data source: Space-Track

STARLINK-1350, 45535 is a payload satellite owned by SpaceX/Seattle (US) in LEO that was launched on Wed, 22 Apr 2020 UTC via an FALCON 9 launch vehicle from the Air Force Eastern Test Range (AFETR). Payload-class satellites include a variety of spacecraft equipped with specific instruments for various scientific and technological missions. These include communications satellites like Starlink; space stations such as the ISS; scientific satellites like the Hubble; Earth observation satellites from companies like Planet Labs, Umbra, and HawkEye 360; GPS; miniature CubeSats for education and research; and military/defense satellites.

Loading next visibility...
Identifier
45535, 2020-025E
Orbit
LEO
Country
Flag of USUS
Related business
Manufacturer
SpaceX/Seattle
Mission
Partially operational Commercial Communications
Bus & Motor
STARLINK, Unknown motor
Mass
260 kg wet, ~248 kg dry
Launch date (UTC)
2020-04-22 (6 years ago)
Launch vehicle
FALCON 9
Launch site
Air Force Eastern Test Range (AFETR)
Object type
Payload
Rocket body
Debris
Shape & HBR
Box + 1 Pan, 10.1 m
Radar Cross Section
13.562 m², Large (>1 m²)

Expand to show TLE details & history
Last TLE update: 11 hours ago

TLE from 11 hours ago
0 STARLINK-1350
1 45535U 20025E   26123.54827153  .00010343  00000-0  28770-3 0  9998
2 45535  53.0704 135.2294 0001187  51.5128 308.5981 15.37442350334590
Epoch: 2026-05-03T13:09Z
TLE epoch observation values (Epoch: 2026-05-03T13:09:30.660Z)
Latitude
-0.00001°
Longitude
76.4014°
Altitude
454.063 km
Speed
7.642 km/s
True Right ascension
09h 00m 55s
True Declination
0° 00' 00"
Sunlit
Object was in daylight at epoch
Visualization orbit readout
Latitude
Unknown
Longitude
Unknown
Altitude
Unknown
Speed
Unknown
Apparent Right ascension
Unknown
Apparent Declination
Unknown
Sunlit
N/A
Visualization observer readout
Local Sidereal Time
07:29:00
Azimuth
Unknown
Elevation
Unknown
Doppler factor
Unknown
Orbital elements
Apogee altitude
454.758 km
Perigee altitude
453.136 km
Semi-major axis
6,832.084 km
Eccentricity
0.00012
Inclination
53.0704°
RAAN
135.2294°
Arg. of periapsis
51.5128°
True anomaly
308.58747°
Mean anomaly
308.5981°
Eccentric anomaly
308.59278°
Mean motion
3.84338 °/min
Orbital period
93.67 mins
BSTAR
0.0002877
Loading maneuver chart data...
Computing Atmospheric mass density...

Documentation

Showing up to 5 results
|